Powrót do katalogu

STARLINK-32021

AktywnyŁącznośćVLEO
NORAD 60148·PAYLOAD·🇺🇸 United States

Wystrzelony Jun 27, 2024 z Cape Canaveral Space Force Station

Loading…

Następne Przeloty (najbliższe 24 godziny)

TLE

ŚwieżeSource: CelesTrak SupGP

Epoka: Sep 15, 2026, 02:59 UTC

1 60148C 24120P   26258.12479167  .00025825  00000+0  83047-3 0  2582
2 60148  53.1582 148.6327 0001358  86.1565 135.8614 15.31688178    11

Śledź STARLINK-32021 w czasie rzeczywistym z AllMySat

Download on the App Store